TimePST,TemperatureF,Dew PointF,Humidity,Sea Level PressureIn,VisibilityMPH,Wind Direction,Wind SpeedMPH,Gust SpeedMPH,PrecipitationIn,Events,Conditions,WindDirDegrees,DateUTC
12:00 AM,39.2,39.2,100,29.95,0.5,South,1.2,-,N/A,Fog,Fog,180,2012-11-16 08:00:00
12:12 AM,39.2,39.2,100,29.95,0.5,SW,2.3,-,N/A,Fog,Fog,220,2012-11-16 08:12:00
12:32 AM,39.2,39.2,100,29.95,0.5,SW,2.3,-,N/A,Fog,Fog,220,2012-11-16 08:32:00
12:58 AM,38.5,38.3,99,29.96,0.5,SSW,2.3,-,0.00,Fog,Fog,210,2012-11-16 08:58:00
1:03 AM,39.2,37.4,93,29.94,0.5,SSW,2.3,-,N/A,Fog,Fog,200,2012-11-16 09:03:00
1:08 AM,39.2,37.4,93,29.94,0.5,Variable,2.3,-,N/A,Fog,Fog,0,2012-11-16 09:08:00
1:12 AM,37.4,37.4,100,29.94,0.5,SSE,3.5,-,N/A,Fog,Fog,150,2012-11-16 09:12:00
1:22 AM,37.4,37.4,100,29.94,0.5,SSE,2.3,-,N/A,Fog,Fog,160,2012-11-16 09:22:00
1:23 AM,37.4,37.4,100,29.94,0.5,South,1.2,-,N/A,Fog,Fog,170,2012-11-16 09:23:00
1:33 AM,37.4,37.4,100,29.94,0.5,South,1.2,-,N/A,Fog,Fog,190,2012-11-16 09:33:00
1:41 AM,37.4,37.4,100,29.94,0.5,SSW,2.3,-,N/A,Fog,Fog,200,2012-11-16 09:41:00
1:58 AM,37.6,37.2,99,29.96,0.5,SSW,4.6,-,0.00,Fog,Fog,200,2012-11-16 09:58:00
2:02 AM,37.4,37.4,100,29.94,0.5,SSW,3.5,-,N/A,Fog,Fog,200,2012-11-16 10:02:00
2:37 AM,35.6,35.6,100,29.93,0.2,SW,2.3,-,N/A,Fog,Fog,230,2012-11-16 10:37:00
2:44 AM,35.6,35.6,100,29.93,0.2,South,1.2,-,N/A,Fog,Fog,190,2012-11-16 10:44:00
2:53 AM,35.6,35.6,100,29.93,0.2,South,3.5,-,N/A,Fog,Fog,190,2012-11-16 10:53:00
2:58 AM,36.0,35.8,99,29.95,0.2,SSW,2.3,-,0.00,Fog,Fog,200,2012-11-16 10:58:00
3:08 AM,35.6,35.6,100,29.92,0.5,SSW,3.5,-,N/A,Fog,Fog,210,2012-11-16 11:08:00
3:22 AM,35.6,35.6,100,29.92,0.5,SSW,3.5,-,N/A,Fog,Fog,210,2012-11-16 11:22:00
3:33 AM,35.6,35.6,100,29.92,0.5,South,2.3,-,N/A,Fog,Fog,190,2012-11-16 11:33:00
3:43 AM,35.6,35.6,100,29.91,0.5,South,3.5,-,N/A,Fog,Fog,180,2012-11-16 11:43:00
3:58 AM,34.5,34.3,99,29.94,0.5,South,3.5,-,0.00,Fog,Fog,170,2012-11-16 11:58:00
4:08 AM,33.8,33.8,100,29.91,0.5,South,2.3,-,N/A,Fog,Fog,190,2012-11-16 12:08:00
4:13 AM,33.8,33.8,100,29.92,0.8,South,3.5,-,N/A,,Mist,180,2012-11-16 12:13:00
4:23 AM,32.0,32.0,100,29.91,0.8,Calm,Calm,-,N/A,,Mist,0,2012-11-16 12:23:00
4:28 AM,32.0,32.0,100,29.91,1.0,Calm,Calm,-,N/A,,Mist,20,2012-11-16 12:28:00
4:48 AM,32.0,32.0,100,29.92,0.8,South,3.5,-,N/A,,Mist,190,2012-11-16 12:48:00
4:53 AM,32.0,32.0,100,29.92,0.8,South,2.3,-,N/A,,Mist,190,2012-11-16 12:53:00
4:58 AM,33.3,32.9,99,29.94,0.8,South,3.5,-,N/A,,Mist,180,2012-11-16 12:58:00
5:03 AM,32.0,32.0,100,29.91,0.5,South,2.3,-,N/A,Fog,Fog,180,2012-11-16 13:03:00
5:08 AM,32.0,32.0,100,29.92,0.5,SSW,2.3,-,N/A,Fog,Fog,200,2012-11-16 13:08:00
5:18 AM,32.0,32.0,100,29.92,0.5,SW,3.5,-,N/A,Fog,Fog,220,2012-11-16 13:18:00
5:38 AM,32.0,32.0,100,29.92,0.5,South,2.3,-,N/A,Fog,Fog,180,2012-11-16 13:38:00
5:48 AM,32.0,32.0,100,29.91,0.8,South,2.3,-,N/A,,Mist,180,2012-11-16 13:48:00
5:53 AM,32.0,32.0,100,29.91,1.5,South,2.3,-,N/A,,Mostly Cloudy,170,2012-11-16 13:53:00
5:58 AM,32.7,32.5,99,29.93,5.0,SSE,2.3,-,N/A,,Mostly Cloudy,160,2012-11-16 13:58:00
6:03 AM,32.0,32.0,100,29.91,10.0,ESE,1.2,-,N/A,,Scattered Clouds,120,2012-11-16 14:03:00
6:58 AM,33.4,33.3,99,29.93,10.0,SE,2.3,-,N/A,,Scattered Clouds,140,2012-11-16 14:58:00
7:30 AM,33.8,33.8,100,29.91,10.0,Variable,2.3,-,N/A,Rain,Light Rain,0,2012-11-16 15:30:00
7:49 AM,33.8,33.8,100,29.91,10.0,SSW,1.2,-,N/A,,Mostly Cloudy,210,2012-11-16 15:49:00
7:58 AM,34.7,34.3,99,29.93,10.0,Variable,1.2,-,0.00,,Mostly Cloudy,0,2012-11-16 15:58:00
8:58 AM,36.5,36.3,99,29.93,10.0,Variable,1.2,-,N/A,,Overcast,0,2012-11-16 16:58:00
9:30 AM,37.4,37.4,100,29.91,10.0,NW,3.5,-,N/A,,Overcast,310,2012-11-16 17:30:00
9:58 AM,38.5,38.3,99,29.93,10.0,NNW,4.6,-,N/A,,Mostly Cloudy,340,2012-11-16 17:58:00
10:21 AM,39.2,39.2,100,29.91,10.0,Calm,Calm,-,N/A,Rain,Light Rain,20,2012-11-16 18:21:00
10:33 AM,41.0,39.2,93,29.92,10.0,NW,3.5,-,N/A,,Mostly Cloudy,320,2012-11-16 18:33:00
10:40 AM,41.0,41.0,100,29.92,10.0,Variable,3.5,-,N/A,,Light Drizzle,0,2012-11-16 18:40:00
10:58 AM,41.0,40.8,99,29.94,10.0,NNW,3.5,-,0.00,,Light Drizzle,330,2012-11-16 18:58:00
11:05 AM,41.0,41.0,100,29.91,10.0,North,3.5,-,N/A,,Overcast,350,2012-11-16 19:05:00
11:21 AM,41.0,41.0,100,29.91,10.0,North,3.5,-,N/A,Rain,Light Rain,360,2012-11-16 19:21:00
11:39 AM,42.8,41.0,93,29.91,10.0,NW,2.3,-,N/A,,Overcast,310,2012-11-16 19:39:00
11:44 AM,41.0,41.0,100,29.91,10.0,Calm,Calm,-,N/A,Rain,Light Rain,0,2012-11-16 19:44:00
11:58 AM,42.4,42.1,99,29.92,10.0,Variable,1.2,-,0.00,Rain,Light Rain,0,2012-11-16 19:58:00
11:59 AM,42.8,41.0,93,29.90,10.0,Variable,1.2,-,N/A,,Mostly Cloudy,0,2012-11-16 19:59:00
12:29 PM,42.8,41.0,93,29.88,10.0,Variable,2.3,-,N/A,Rain,Light Rain,0,2012-11-16 20:29:00
12:58 PM,43.2,42.1,96,29.89,10.0,NE,3.5,-,0.01,Rain,Light Rain,50,2012-11-16 20:58:00
1:58 PM,43.9,43.7,99,29.86,10.0,Variable,3.5,-,0.02,Rain,Light Rain,0,2012-11-16 21:58:00
2:58 PM,44.6,44.4,99,29.85,7.0,NW,2.3,-,0.03,Rain,Light Rain,320,2012-11-16 22:58:00
3:34 PM,44.6,44.6,100,29.81,9.0,East,2.3,-,N/A,,Overcast,80,2012-11-16 23:34:00
3:58 PM,44.6,44.4,99,29.83,10.0,Calm,Calm,-,0.02,,Overcast,0,2012-11-16 23:58:00
4:17 PM,44.6,44.6,100,29.80,8.0,WSW,2.3,-,N/A,Rain,Light Rain,250,2012-11-17 00:17:00
4:58 PM,44.8,44.4,99,29.81,6.0,Calm,Calm,-,0.03,Rain,Light Rain,0,2012-11-17 00:58:00
5:49 PM,44.6,44.6,100,29.78,10.0,Variable,2.3,-,N/A,,Overcast,0,2012-11-17 01:49:00
5:58 PM,44.4,44.2,99,29.80,10.0,NW,3.5,-,0.02,,Overcast,320,2012-11-17 01:58:00
6:07 PM,44.6,44.6,100,29.78,8.0,North,1.2,-,N/A,,Overcast,350,2012-11-17 02:07:00
6:58 PM,43.7,43.5,99,29.78,5.0,Calm,Calm,-,N/A,,Overcast,30,2012-11-17 02:58:00
7:58 PM,43.9,43.5,99,29.77,6.0,SW,2.3,-,N/A,,Overcast,220,2012-11-17 03:58:00
8:33 PM,44.6,42.8,93,29.74,6.0,Calm,Calm,-,N/A,Rain,Light Rain,0,2012-11-17 04:33:00
8:58 PM,44.1,43.9,99,29.76,5.0,NNW,2.3,-,0.00,Rain,Light Rain,340,2012-11-17 04:58:00
9:21 PM,44.6,44.6,100,29.73,4.0,East,2.3,-,N/A,,Mostly Cloudy,100,2012-11-17 05:21:00
9:24 PM,44.6,44.6,100,29.73,4.0,East,2.3,-,N/A,Rain,Light Rain,100,2012-11-17 05:24:00
9:40 PM,44.6,44.6,100,29.73,5.0,WNW,1.2,-,N/A,,Overcast,300,2012-11-17 05:40:00
9:58 PM,44.8,44.6,99,29.74,7.0,Calm,Calm,-,0.01,,Overcast,350,2012-11-17 05:58:00
10:41 PM,44.6,44.6,100,29.73,9.0,Variable,4.6,-,N/A,Rain,Light Rain,0,2012-11-17 06:41:00
10:58 PM,45.9,45.7,99,29.75,8.0,Variable,5.8,-,0.02,Rain,Light Rain,0,2012-11-17 06:58:00
11:58 PM,45.7,45.3,99,29.71,5.0,East,2.3,-,0.02,Rain,Light Rain,90,2012-11-17 07:58:00